Welcome to the New NWS' Forecast!
Most changes are behind the scenes, but click here for differences you might notice.
Latest weather observations around

Bakersfield, Meadows Field Airport (KBFL)

Using English Units (Switch to International System of Units)
Date/ Time (PST) Wind (mph) Vis. (mi) Weather Sky Cond. Temp (°F) Rel. Humidity Wind Chill (°F) Heat Index (°F) Pressure Precip. (in)
Air Dwpt 6 hour Altimeter (inHg) Sea level (inHg) 1 hr 3 hr 6 hr
Max Min
Nov 17 23:54 Calm 10 Mostly Cloudy BKN038 54 49     83%     30.19 30.18      
Nov 17 22:54 SSE 3 10 Mostly Cloudy BKN041 56 50     80%     30.19 30.19      
Nov 17 21:54 SSW 3 10 Clear CLR 56 50     80%     30.19 30.18      
Nov 17 20:54 SSE 6 10 Cloudy OVC048 58 51     78%     30.18 30.17      
Nov 17 19:54 S 6 10 Cloudy OVC040 58 51     78%     30.17 30.16      
Nov 17 18:54 Calm 10 Cloudy OVC033 59 50     72%     30.15 30.14      
Nov 17 18:41 Calm 10 Cloudy SCT026 OVC033 59 50     72%     30.15        
Nov 17 17:54 SW 3 10 Cloudy SCT020 OVC024 59 50     72%     30.14 30.13      
Nov 17 16:54 ESE 5 10 Cloudy OVC023 59 50     72%     30.12 30.11      
Nov 17 15:54 5 10 Cloudy OVC023 61 49     64%     30.12 30.11     0
Nov 17 14:54 W 3 10 Cloudy BKN025 OVC043 61 49     64%     30.13 30.11      
Nov 17 14:10 W 10 10 Cloudy SCT023 OVC043 61 48     62%     30.13        
Nov 17 13:54 WNW 10 10 Cloudy OVC023 61 48     62%     30.13 30.12      
Nov 17 12:54 NW 11 10 Cloudy OVC018 60 50     69%     30.15 30.13 0 0  
Nov 17 12:25 NW 14 9 Light Rain OVC016 58 52     81%     30.15   0    
Nov 17 11:54 NW 15 10 Cloudy BKN013 OVC018 58 52     81%     30.15 30.14      
Nov 17 11:36 NW 14 10 Cloudy BKN013 OVC018 58 52     81%     30.15        
Nov 17 10:54 NNW 17 10 Cloudy BKN006 OVC010 58 54     87%     30.14 30.13 0    
Nov 17 10:30 NNW 17 7 Cloudy BKN006 OVC012 59 56     90%     30.14   0    
Nov 17 10:13 NNW 16 5 Fog/Mist SCT008 BKN014 OVC024 61 58     90%     30.13   0    
Nov 17 09:54   9 Light Rain FEW010 BKN024 OVC035 61 57     87%     30.13 30.11 0   0
Nov 17 09:14   9 Light Rain SCT008 BKN017 OVC028 62 58     86%     30.11   0    
Nov 17 08:58 NNW 14 6 Light Rain and Fog/Mist BKN008 BKN016 OVC025 62 59     90%     30.1   0    
Nov 17 08:54 NNW 10 2.5 Light Rain and Fog/Mist SCT008 BKN016 OVC028 62 59     90%     30.09 30.08 0    
Nov 17 08:44   2.5 Light Rain and Fog/Mist SCT008 BKN016 OVC022 61 58     90%     30.09   0    
Nov 17 08:22 NW 13 6 Light Rain SCT019 BKN025 OVC048 63 56     78%     30.08   0    
Nov 17 07:54 NW 7 10 Light Rain SCT033 BKN047 OVC060 63 55     75%     30.07 30.05 0    
Nov 17 06:54 Calm 10 Cloudy OVC055 64 51     63%     30.03 30.01      
Nov 17 05:54 E 6 10 Cloudy BKN060 OVC080 64 51     63%     30.01 29.99      
Nov 17 04:54 SE 7 10 Cloudy FEW048 OVC070 63 51     65%     29.99 29.98      
Nov 17 03:54 SE 5 10 Cloudy OVC055 64 51     63%     29.99 29.97      
Nov 17 02:54 SSE 8 10 Cloudy BKN070 OVC100 66 49     54%     29.99 29.97      
Nov 17 01:54 N 6 10 Mostly Cloudy BKN110 68 49     50%     29.98 29.96      
Nov 17 00:54 N 9 10 Cloudy OVC110 68 49     50%     29.96 29.95      
Nov 16 23:54 N 8 10 Cloudy OVC110 67 49     52%     29.95 29.94      
Nov 16 22:54 N 7 10 Mostly Cloudy BKN110 70 47     44%     29.94 29.92      
Nov 16 21:54 N 10 10 Mostly Cloudy BKN120 69 48     47%     29.95 29.93      
Nov 16 20:54 N 9 10 Mostly Cloudy BKN110 72 46     40%   71 29.94 29.92      
Nov 16 19:54 NNW 5 10 Mostly Cloudy BKN075 70 45     41%     29.93 29.91      
Nov 16 18:54 NNE 6 10 Cloudy OVC085 73 45     37%   72 29.92 29.9      
Nov 16 17:54 N 6 10 Mostly Cloudy BKN090 74 45     36%   73 29.92 29.91      
Nov 16 16:54 N 8 10 Cloudy OVC085 75 47     37%   74 29.91 29.9      
Nov 16 15:54 NNW 8 10 Cloudy OVC085 76 47     36%   75 29.89 29.88      
Nov 16 14:54 NNW 9 10 Cloudy OVC090 78 47     33%   77 29.89 29.88      
Nov 16 13:54 WNW 8 10 Mostly Cloudy BKN085 79 48     34%   78 29.9 29.88      
Nov 16 12:54 WSW 6 10 Mostly Cloudy SCT085 BKN100 78 43     29%   77 29.9 29.88      
Nov 16 11:54 WSW 3 10 Cloudy OVC090 76 42     30%   75 29.93 29.91      
Nov 16 10:54 Calm 9 Cloudy BKN095 OVC110 74 43     33%   73 29.95 29.93      
Nov 16 09:54 W 3 10 Cloudy OVC110 72 44     37%   71 29.96 29.95      
Nov 16 08:54 Calm 10 Partly Cloudy SCT110 69 42     38%     29.95 29.94      
Nov 16 07:54 Calm 10 Mostly Cloudy BKN110 67        %     29.94 29.92      
Nov 16 06:54 NE 6 10 Mostly Clear FEW120 63 38     40%     29.93 29.92      
Nov 16 05:54 Calm 10 Clear CLR 64 41     43%     29.93 29.92      
Nov 16 04:54 NNE 5 10 Mostly Cloudy BKN120 63 45     52%     29.92 29.91      
Nov 16 03:54 Calm 10 Cloudy OVC110 63 46     54%     29.93 29.91      
Nov 16 02:54 ESE 3 9 Cloudy OVC110 63 48     58%     29.92 29.91      
Nov 16 01:54 Calm 9 Cloudy SCT100 OVC120 63 48     58%     29.95 29.94      
Nov 16 00:54 E 6 8 Cloudy OVC110 64 48     56%     29.95 29.94      
Nov 15 23:54 SE 7 8 Mostly Cloudy BKN095 BKN110 63 49     60%     29.97 29.95      
Nov 15 22:54 Calm 9 Cloudy OVC100 66 47     50%     29.96 29.95      
Nov 15 21:54 NE 3 8 Cloudy OVC110 66 47     50%     29.97 29.96      
Nov 15 20:54 ENE 5 8 Mostly Cloudy BKN120 65 47     52%     29.97 29.96      
Nov 15 19:54 Calm 8 Clear CLR 66 48     52%     29.96 29.95      
Nov 15 18:54 ESE 3 9 Clear CLR 71 49     45%   70 29.96 29.95      
Nov 15 17:54 Calm 10 Clear CLR 71 49     45%   70 29.96 29.95      
Nov 15 16:54 WSW 3 10 Clear CLR 73 48     41%   72 29.96 29.95      
Nov 15 15:54 WNW 3 10 Clear CLR 75 48     38%   74 29.96 29.95      
Nov 15 14:54 WSW 3 8 Clear CLR 74 48     40%   73 29.96 29.95      
Nov 15 13:54 WNW 3 8 Clear CLR 73 48     41%   72 29.97 29.96      
Nov 15 12:54 5 8 Clear CLR 71 48     44%   70 29.99 29.98      
Nov 15 11:54 Calm 7 Clear CLR 69 48     47%     30.02 30.01      
Nov 15 10:54 WSW 3 7 Clear CLR 66 47     50%     30.05 30.04      
Nov 15 09:54 S 6 6 Haze CLR 63 46     54%     30.07 30.06      
Nov 15 08:54 SSE 3 6 Haze CLR 59 47     64%     30.08 30.07      
Nov 15 07:54 Calm 5 Haze CLR 55 46     72%     30.09 30.08      
Nov 15 06:54 ENE 3 6 Haze CLR 53 45     74%     30.08 30.07      
Nov 15 05:54 Calm 5 Haze CLR 51 45     79%     30.07 30.06      
Nov 15 04:54 Calm 6 Haze CLR 52 45     77%     30.07 30.06      
Nov 15 03:54 Calm 7 Clear CLR 53 44     71%     30.07 30.06      
Nov 15 02:54 Calm 6 Haze CLR 52 45     77%     30.09 30.08      
Nov 15 01:54 Calm 6 Haze CLR 53 45     74%     30.09 30.08      
Nov 15 00:54 E 6 7 Clear CLR 56 46     69%     30.1 30.09      
Jun 11 23:54 N 18 10 Mostly Cloudy BKN080 61 42     50%     29.98 29.97      
Jun 11 09:54 NNW 13 10 Mostly Clear FEW039 64 43     46%     29.93 29.92      
Jun 11 07:54 NNW 15 10 Clear CLR 61 44     54%     29.91 29.9      
Jun 10 21:54 N 6 10 Clear CLR 71 46     41%   70 29.84 29.82      
Jun 10 18:54 NW 10 10 Clear CLR 77 46     33%   76 29.82 29.8      
Jun 10 15:54 W 10 10 Clear CLR 77 47     35%   76 29.85 29.84      
Jun 10 08:54 NW 8 10 Cloudy OVC048 63 43     48%     29.96 29.94      
Jun 08 21:54 NW 14 10 Clear   76 48     37%   75 29.92 29.9      
Jun 08 14:01 W 10 9 Mostly Clear FEW001 87 37     17%   84 29.94        
Jun 08 11:54 W 7 10 Clear CLR 81 46     29%   80 29.97 29.95      
Jun 08 06:54 ENE 5 10 Clear CLR 69 46     44%     29.97 29.95      
Jun 07 08:54 3 10 Clear CLR 78 45     31%   77 29.87 29.85